Location: Gagetown
(45.7834°N, 66.1486°W)
Time: 12:26:02
(UTC+00:00)

BUGSAT 1 - Visible Passes

Search period start: 21 September 2021 00:00
Search period end: 01 October 2021 00:00
Orbit: 558 x 601 km, 98.1° (Epoch: 20 September)

Date Brightness Start Highest point End Pass type
(mag) Time Alt. Az. Time Alt. Az. Time Alt. Az.
21 Sep ? 08:56:40 10° NNE 09:00:39 47° E 09:04:34 10° S visible
22 Sep ? 09:01:29 10° NNE 09:05:31 53° E 09:09:28 10° S visible
23 Sep ? 09:06:18 10° NNE 09:10:22 60° ESE 09:14:22 10° S visible
24 Sep ? 09:11:08 10° NNE 09:15:13 68° ESE 09:19:14 10° S visible
25 Sep ? 09:15:58 10° NNE 09:20:04 77° ESE 09:24:06 10° S visible
26 Sep ? 09:20:49 10° NNE 09:24:55 86° ESE 09:28:56 10° SSW visible
27 Sep ? 09:25:40 10° NNE 09:29:45 84° WNW 09:33:46 10° SSW visible
28 Sep ? 07:58:40 10° E 07:58:47 10° E 07:58:55 10° E visible
28 Sep ? 09:30:32 10° N 09:34:36 75° WNW 09:38:36 10° SSW visible
29 Sep ? 08:02:22 10° ENE 08:03:41 11° E 08:05:01 10° ESE visible
29 Sep ? 09:35:24 10° N 09:39:26 66° WNW 09:43:24 10° SSW visible
30 Sep ? 08:06:45 10° ENE 08:08:35 13° E 08:10:26 10° ESE visible
30 Sep ? 09:40:16 10° N 09:44:16 58° WNW 09:48:12 10° SSW visible
